Location: Dennis Manor
(64.8292°N, 147.5397°W)
Time: 09:18:15
(UTC+00:00)

Envisat - Visible Passes

Search period start: 27 October 2020 00:00
Search period end: 06 November 2020 00:00
Orbit: 764 x 766 km, 98.1° (Epoch: 26 October)

Date Brightness Start Highest point End Pass type
(mag) Time Alt. Az. Time Alt. Az. Time Alt. Az.
27 Oct 4.5 03:21:24 10° SSW 03:26:11 41° W 03:31:01 10° NNW visible
27 Oct 6.4 05:04:46 10° W 05:06:41 12° WNW 05:08:36 10° NW visible
27 Oct 4.9 15:17:13 10° NNE 15:21:52 34° E 15:26:30 10° SSE visible
28 Oct 3.6 02:44:06 10° S 02:49:09 65° WSW 02:54:15 10° NNW visible
28 Oct 5.9 04:25:35 10° SW 04:29:12 19° W 04:32:48 10° NW visible
28 Oct 5.7 14:40:41 10° NE 14:44:37 22° E 14:48:32 10° SE visible
28 Oct 3.3 16:19:24 10° NNE 16:24:31 74° ESE 16:29:37 10° SSW visible
29 Oct 5.2 03:47:26 10° SSW 03:51:53 30° W 03:56:21 10° NNW visible
29 Oct 6.3 14:04:34 10° NE 14:07:11 14° ENE 14:09:47 10° ESE visible
29 Oct 4.2 15:42:35 10° NNE 15:47:31 47° E 15:52:26 10° S visible
30 Oct 4.2 03:09:50 10° S 03:14:44 47° W 03:19:40 10° NNW visible
30 Oct 6.3 04:52:29 10° WSW 04:55:05 14° WNW 04:57:40 10° NW visible
30 Oct 5.1 15:05:54 10° NNE 15:10:23 30° E 15:14:50 10° SSE visible
31 Oct 3.3 02:32:39 10° SSE 02:37:45 74° WSW 02:42:52 10° NNW visible
31 Oct 5.7 04:13:44 10° SW 04:17:39 22° W 04:21:34 10° NW visible
31 Oct 5.9 14:29:27 10° NE 14:33:04 19° E 14:36:41 10° SE visible
31 Oct 3.6 16:08:00 10° NNE 16:13:06 65° ESE 16:18:10 10° S visible
01 Nov 4.9 03:35:46 10° SSW 03:40:23 34° W 03:45:02 10° NNW visible
01 Nov 6.4 13:53:40 10° NE 13:55:35 12° ENE 13:57:31 10° E visible
01 Nov 4.5 15:31:14 10° NNE 15:36:04 41° E 15:40:52 10° SSE visible
02 Nov 3.9 02:58:17 10° S 03:03:17 54° WSW 03:08:18 10° NNW visible
02 Nov 6.1 04:40:25 10° WSW 04:43:30 16° WNW 04:46:36 10° NW visible
02 Nov 5.3 14:54:36 10° NNE 14:58:52 26° E 15:03:08 10° SE visible
02 Nov 3.1 16:33:28 10° NNE 16:38:36 88° ESE 16:43:43 10° SSW visible
03 Nov 3.1 02:21:14 10° SSE 02:26:20 84° WSW 02:31:29 10° NNW visible
03 Nov 5.4 04:01:57 10° SW 04:06:07 25° W 04:10:18 10° NNW visible
03 Nov 6.0 14:18:15 10° NE 14:21:31 17° E 14:24:45 10° ESE visible
03 Nov 3.8 15:56:38 10° NNE 16:01:40 56° ESE 16:06:41 10° S visible
04 Nov 4.6 03:24:09 10° SSW 03:28:54 39° W 03:33:41 10° NNW visible
04 Nov 6.4 05:07:51 10° W 05:09:27 11° WNW 05:11:02 10° NW visible
04 Nov 6.5 13:43:17 10° ENE 13:43:58 10° ENE 13:44:39 10° ENE visible
04 Nov 4.7 15:19:53 10° NNE 15:24:36 36° E 15:29:16 10° SSE visible
05 Nov 3.6 02:46:48 10° S 02:51:52 62° WSW 02:56:56 10° NNW visible
05 Nov 5.9 04:28:27 10° SW 04:31:56 18° W 04:35:25 10° NW visible
05 Nov 5.5 14:43:19 10° NNE 14:47:21 23° E 14:51:22 10° SE visible
05 Nov 3.2 16:22:04 10° NNE 16:27:12 78° ESE 16:32:18 10° SSW visible
